Temperature
15 15 15 15 15 15 15 15 15 15 15 15 16 16 16 16 16 16 15 15 15 15 15 15 15 15 15 15 15 15 15 15 15 15 15 14 14 14 14 14 14 14 14
15 15 15 15 15 15 15 15 15 15 15 15 15 15 15 15 15 15 15 15 15 15 15 15 15 15 15 15 15 15 15 15 14 14 14 14 14 14 14 14 14 14 14
14 14 15 15 15 15 15 15 15 15 15 15 15 15 15 15 15 15 15 15 15 15 15 15 14 14 14 15 15 15 14 14 14 14 14 13 14 14 14 14 14 14 14
14 14 14 14 15 15 15 15 15 15 15 15 15 15 15 15 15 15 15 15 15 14 14 14 14 14 14 14 14 14 14 14 14 14 13 13 13 13 13 13 13 13 13
14 14 14 14 14 15 15 15 15 15 15 15 15 15 15 15 15 15 15 14 14 14 14 14 14 14 14 14 14 14 14 14 14 13 13 13 13 13 13 13 13 13 13
13 13 14 14 14 14 14 15 15 15 15 15 15 15 15 15 15 14 14 14 14 14 14 14 14 14 14 14 14 14 14 14 13 13 12 12 13 13 13 13 13 13 13
13 13 13 14 14 14 14 14 14 15 14 15 15 14 14 14 14 14 14 14 14 14 14 14 14 14 14 13 14 14 13 13 13 12 12 12 12 12 12 12 12 12 12
13 13 13 13 13 14 14 14 14 14 14 14 14 14 14 14 14 14 14 14 14 14 14 13 13 13 13 13 13 13 13 13 13 12 12 12 12 12 12 12 12 12 12
12 12 13 13 13 13 13 13 14 14 14 14 14 14 14 14 14 14 13 13 13 13 13 13 13 13 13 13 13 13 13 13 12 12 12 12 12 12 12 12 12 12 12
12 12 12 12 12 13 13 13 13 13 13 13 13 14 13 13 13 13 13 13 13 13 13 13 13 13 13 13 13 13 12 12 12 12 12 12 12 12 12 12 12 11 11
11 11 12 12 12 12 12 12 13 13 13 13 13 13 13 13 13 13 13 13 13 13 13 13 13 13 13 12 12 12 12 12 11 11 11 12 12 12 11 11 11 11 11
11 11 11 11 12 12 12 12 12 12 12 12 12 12 12 12 12 12 12 13 13 13 13 12 12 12 12 12 12 12 11 11 11 11 11 11 11 11 11 11 11 11 11
10 10 10 11 11 11 12 12 12 12 12 12 12 12 12 12 12 12 12 12 12 12 12 12 12 12 12 12 11 11 11 11 11 11 11 11 11 11 11 11 11 11 10
9 9 10 10 10 11 11 11 11 11 11 11 11 12 12 11 11 11 12 12 12 12 12 12 12 11 11 11 11 11 11 11 11 11 11 11 11 11 11 10 10 10 10
8 9 9 10 10 10 10 11 11 11 11 11 11 11 11 11 11 11 11 11 11 11 11 11 11 11 11 11 11 11 11 11 11 11 11 10 10 10 10 10 10 10 10
8 8 8 9 9 10 10 10 10 10 10 11 11 11 11 11 11 11 11 11 11 11 11 11 11 11 11 10 10 11 11 10 10 10 10 10 10 10 10 10 10 10 10
7 7 8 8 8 9 9 9 10 10 10 10 10 10 10 10 10 10 10 10 10 10 10 10 10 10 10 10 10 10 10 10 10 10 10 10 10 10 10 10 10 10 10
6 7 7 7 8 8 9 9 9 9 9 10 10 10 10 10 10 10 10 10 10 10 10 10 10 10 10 10 10 10 10 10 10 10 10 10 9 9 9 9 9 9 9
6 6 6 7 7 8 8 8 9 9 9 9 9 9 9 9 9 9 9 9 9 9 9 9 9 9 9 9 9 9 9 9 9 9 9 9 9 9 9 9 9 9 9
5 6 6 6 7 7 7 8 8 8 8 8 9 9 9 9 9 9 9 9 9 9 9 9 9 9 9 9 9 9 9 9 9 9 9 9 9 9 9 9 9 9 9
5 5 5 6 6 6 7 7 7 8 8 8 8 8 8 8 8 8 8 9 9 9 9 9 9 9 8 8 8 8 8 8 8 9 9 9 9 9 9 9 9 8 8
5 5 5 6 6 6 6 6 7 7 7 7 7 8 8 8 8 8 8 8 8 8 8 8 8 8 8 8 8 7 7 7 8 8 8 8 8 8 8 8 8 8 8
4 4 5 5 5 5 6 6 6 6 6 7 7 7 7 7 7 7 7 7 7 7 7 7 7 8 8 7 7 7 7 7 7 7 8 8 8 8 8 8 8 8 8
3 3 4 4 5 5 5 6 6 6 6 6 6 6 7 7 7 7 7 7 7 7 7 7 7 7 7 7 7 7 7 7 7 7 7 7 7 8 7 8 8 7 8
3 3 3 4 4 5 5 5 5 5 5 5 6 6 6 6 6 6 6 6 6 6 7 6 6 7 7 7 7 7 7 7 7 7 6 7 7 7 7 7 7 7 7
2 2 3 3 4 4 4 4 4 5 5 5 5 5 5 6 6 6 6 6 6 6 6 6 6 6 6 6 6 6 6 6 6 6 6 6 6 7 7 7 7 7 7
Wind_Speed
2 4 8 8 8 9 11 12 13 14 14 14 14 14 14 14 14 14 14 14 14 15 15 16 17 17 18 18 18 18 18 18 19 19 19 19 18 18 17 16 16 18 19
2 5 9 8 9 9 11 12 13 14 14 14 14 13 13 13 13 14 14 14 14 15 16 16 17 17 17 18 18 18 18 18 17 17 17 18 18 17 17 18 17 17 19
1 5 10 9 9 9 11 13 13 14 14 13 13 13 13 13 13 13 14 14 14 14 15 16 16 17 17 17 17 17 17 17 15 13 13 15 16 16 17 18 18 18 18
1 4 8 9 9 9 11 13 13 14 14 13 13 13 13 13 13 13 13 14 14 14 15 15 16 16 16 16 17 16 16 15 12 9 12 13 14 16 16 17 17 17 17
1 3 7 8 9 9 11 13 13 13 14 13 13 13 13 13 13 13 13 13 14 14 15 15 16 16 16 16 16 15 15 14 11 11 12 12 13 15 16 16 16 16 17
2 2 7 8 9 9 10 12 13 13 13 13 13 12 12 13 13 12 13 13 14 14 15 15 15 15 15 15 15 15 13 11 10 11 11 12 13 15 15 15 15 16 17
3 3 6 8 8 9 10 11 12 13 13 13 13 12 12 12 13 13 13 14 14 14 14 14 15 15 15 15 14 13 12 9 10 11 11 11 13 14 14 15 15 16 16
3 4 5 6 8 8 9 10 11 12 12 12 12 12 12 12 12 13 13 14 13 13 14 14 14 14 14 14 13 12 10 8 10 10 10 11 13 13 13 14 14 15 15
4 4 4 5 5 7 8 9 10 11 12 12 12 12 12 12 12 13 13 13 13 13 13 13 14 14 14 14 13 12 10 8 9 9 9 10 11 12 12 13 13 14 14
4 4 4 4 4 4 6 8 8 10 10 11 11 11 12 12 12 13 13 13 13 13 13 13 13 14 13 13 12 11 9 7 8 9 8 10 11 11 11 12 12 13 12
4 4 3 3 3 3 4 6 7 8 9 11 10 11 12 11 11 11 12 13 13 13 13 13 13 13 13 12 11 10 7 7 8 7 8 10 10 10 11 11 11 12 11
3 3 3 2 2 3 3 4 6 6 7 8 9 9 9 9 9 9 12 13 13 13 14 13 13 12 9 9 9 7 6 7 7 7 8 10 10 10 10 10 10 11 11
1 2 3 2 1 3 3 2 3 4 5 6 7 7 7 8 8 9 9 10 11 12 11 11 9 7 7 6 6 6 6 6 6 7 8 9 9 9 10 10 10 10 10
1 1 2 3 1 2 3 2 2 3 4 4 5 6 6 5 6 7 7 8 8 7 8 7 6 6 6 6 6 6 6 5 5 6 8 9 8 8 9 9 9 9 9
1 1 2 2 1 2 2 2 2 3 4 5 5 6 6 5 5 5 6 6 7 7 7 6 6 6 6 6 5 5 5 5 5 6 7 9 7 7 8 9 8 8 9
2 2 2 1 1 2 2 2 2 2 3 4 5 5 5 5 5 5 5 5 6 6 6 6 6 6 5 5 5 5 5 5 5 5 6 7 7 7 7 7 8 8 8
3 2 2 1 1 2 2 3 3 3 3 4 4 5 4 4 5 6 5 4 5 6 6 6 6 5 5 4 4 4 4 4 4 4 4 4 5 6 6 7 7 7 7
3 3 2 2 2 1 2 2 3 3 3 3 4 4 4 4 5 5 5 4 5 6 5 5 4 4 4 4 3 3 3 3 3 4 4 4 4 4 5 6 6 6 5
2 2 2 2 2 1 2 2 3 3 3 3 4 4 3 3 4 5 4 4 5 5 5 4 4 4 4 4 3 2 2 2 2 3 4 4 3 3 4 5 5 4 4
2 2 2 2 2 1 2 2 2 3 2 3 3 3 4 3 4 4 3 4 5 4 4 4 5 4 4 4 3 2 1 1 1 2 3 3 3 3 3 3 3 3 3
2 2 2 2 1 1 2 2 2 2 1 2 3 3 4 4 4 4 3 3 4 4 4 4 4 5 4 4 3 2 1 1 1 2 2 2 3 3 3 3 2 2 2
2 2 2 1 1 1 1 2 2 2 1 1 2 2 3 3 4 4 3 3 3 3 4 4 4 3 3 3 3 3 2 2 2 1 2 2 3 3 2 2 3 3 3
3 3 2 1 0 1 2 2 2 2 1 1 1 1 1 3 4 4 4 3 3 4 4 4 4 4 4 4 3 2 2 3 2 2 3 3 3 3 3 2 3 3 3
4 3 2 1 1 1 2 3 3 2 2 0 1 1 0 2 3 3 3 3 3 3 4 4 4 3 4 4 3 2 1 1 2 2 2 3 3 3 3 2 3 3 4
4 4 2 1 1 1 1 2 3 2 1 1 1 1 1 1 2 2 2 2 2 2 3 4 3 3 3 4 4 3 2 2 3 3 3 3 3 3 3 3 3 3 4
4 4 3 1 1 1 2 1 2 2 2 2 1 1 0 0 1 1 1 1 2 2 3 4 3 4 3 4 4 3 3 3 3 3 3 3 3 2 3 3 3 3 3
Wind_Direction
161 159 154 150 138 140 142 139 134 134 132 130 128 126 123 119 117 115 115 113 112 109 106 104 104 101 99 97 94 91 89 88 85 82 82 79 79 78 75 75 79 78 77
179 169 156 151 140 141 145 143 137 134 132 130 129 128 126 123 122 118 117 116 114 111 109 106 105 102 100 98 95 93 91 89 88 87 88 84 79 79 76 71 71 79 78
136 158 159 151 145 145 146 144 140 136 132 131 130 129 127 126 124 121 119 118 115 111 110 108 106 103 101 99 97 95 93 91 90 91 94 89 86 82 81 79 79 80 79
129 157 156 147 146 145 148 146 142 139 135 134 133 130 129 126 124 123 120 119 116 113 112 110 109 106 104 102 100 98 95 92 88 89 86 86 88 86 85 82 81 80 80
121 149 146 146 143 144 147 148 144 140 138 137 134 132 129 126 124 122 121 118 116 115 114 113 112 110 109 106 103 100 98 94 88 85 85 86 86 87 85 84 83 83 82
88 120 136 137 142 143 145 148 145 143 142 140 137 133 130 128 125 122 119 117 116 117 116 116 115 112 111 108 105 103 101 100 99 88 87 88 88 89 87 85 84 85 82
61 86 127 130 132 136 140 143 146 145 144 142 138 136 133 128 125 123 120 118 117 117 118 118 115 114 113 110 107 105 101 94 92 90 89 88 90 91 88 87 86 86 84
54 71 102 125 132 131 134 136 139 145 144 142 140 138 134 129 126 124 123 120 119 119 117 118 117 115 113 112 109 106 102 99 95 93 90 89 92 93 91 89 88 86 85
52 62 83 99 122 131 132 134 135 140 144 143 141 138 133 129 126 126 124 123 122 119 119 117 116 116 114 111 110 107 100 93 97 93 92 92 95 95 94 92 90 88 85
51 59 69 89 93 116 134 128 132 137 138 140 136 133 130 128 129 128 126 124 121 120 119 118 115 114 114 112 111 110 110 112 98 93 90 94 97 98 97 95 93 91 87
35 42 48 73 86 90 117 127 126 129 133 135 131 128 134 138 136 134 129 126 123 121 121 119 117 115 114 113 112 116 119 107 97 89 87 95 102 101 100 99 98 94 90
19 21 35 38 82 95 97 128 137 131 133 139 140 140 143 143 139 133 129 127 126 123 122 119 119 121 125 124 120 128 116 109 99 92 89 96 102 103 102 102 101 95 93
4 13 24 23 91 99 90 104 125 132 129 126 135 139 140 139 139 138 137 133 131 129 126 124 127 128 128 125 129 125 117 108 101 97 93 99 100 103 104 105 103 99 95
10 0 2 23 37 106 102 94 107 121 124 116 118 133 137 136 139 146 145 146 141 137 135 135 131 127 125 129 130 127 121 109 103 101 95 100 102 104 108 110 108 104 101
293 339 343 18 31 115 116 103 93 110 120 124 122 124 130 141 140 140 144 147 144 141 141 139 136 131 129 129 128 127 121 114 109 107 102 95 98 104 108 109 111 110 107
296 309 320 357 13 117 113 109 100 101 122 123 124 119 125 132 138 138 136 139 139 145 146 145 140 136 133 130 127 127 124 120 115 112 110 105 94 93 103 108 110 115 113
306 310 310 299 1 114 118 109 96 96 113 113 116 119 115 124 139 140 138 136 135 135 136 138 137 135 128 126 125 120 122 126 126 123 123 127 122 102 97 103 107 110 108
321 316 320 319 331 142 125 118 106 100 109 105 114 117 114 119 135 141 141 137 135 138 138 139 141 141 139 135 131 123 121 135 145 137 131 132 134 131 116 106 105 106 103
323 325 330 324 310 182 140 126 115 107 105 107 111 108 113 120 129 137 142 136 136 138 144 146 150 149 146 139 131 127 120 131 146 148 140 132 129 134 135 127 122 114 114
335 339 335 320 299 171 137 125 107 96 93 101 103 105 111 117 126 126 134 138 139 140 145 153 151 148 150 146 137 129 126 137 154 155 154 142 140 145 151 152 155 146 149
358 345 330 319 303 155 143 150 153 142 128 112 96 109 117 119 123 127 127 146 149 157 158 159 153 151 153 152 143 125 111 148 180 174 168 163 154 157 164 173 176 184 170
350 340 338 323 226 179 160 166 174 183 152 114 89 100 127 129 136 140 139 148 159 159 157 158 155 161 164 170 165 157 173 186 190 192 197 198 194 177 178 197 201 205 209
338 335 333 331 279 188 159 138 130 127 117 103 93 97 129 142 144 143 148 149 162 168 170 171 173 175 178 185 192 194 190 201 180 198 212 214 215 207 201 206 220 220 220
332 319 316 322 39 47 141 147 147 152 152 212 186 182 122 139 142 149 151 156 162 174 176 181 185 191 183 193 194 223 240 182 200 193 203 214 217 224 223 217 230 232 228
343 329 310 11 46 50 99 155 155 155 149 120 131 114 117 125 132 139 150 160 172 180 183 188 193 196 196 202 199 193 199 199 218 226 218 217 228 230 236 235 234 237 234
348 351 345 25 61 72 69 116 148 163 154 134 136 108 78 139 139 140 143 168 197 193 192 196 200 205 206 210 209 205 202 203 209 221 229 225 237 240 246 238 234 235 236
Height
1529 1530 1531 1533 1535 1537 1538 1540 1541 1542 1543 1544 1545 1545 1546 1546 1547 1547 1548 1548 1549 1549 1549 1550 1550 1551 1551 1551 1551 1551 1551 1551 1551 1551 1551 1551 1551 1551 1551 1551 1551 1550 1550
1529 1530 1531 1533 1535 1537 1538 1540 1541 1543 1544 1545 1545 1546 1547 1548 1548 1549 1549 1550 1550 1551 1551 1551 1552 1552 1552 1553 1553 1553 1553 1553 1553 1553 1553 1553 1553 1553 1553 1553 1552 1552 1552
1528 1530 1532 1533 1535 1537 1539 1540 1542 1543 1544 1545 1546 1547 1548 1549 1549 1550 1550 1551 1552 1552 1552 1553 1553 1554 1554 1555 1555 1555 1555 1556 1556 1556 1556 1556 1555 1555 1555 1555 1555 1554 1554
1528 1530 1532 1534 1536 1537 1539 1540 1542 1543 1545 1546 1547 1548 1548 1549 1550 1551 1551 1552 1553 1553 1554 1554 1555 1555 1556 1556 1557 1557 1557 1558 1558 1558 1559 1558 1558 1557 1557 1557 1557 1556 1556
1529 1531 1532 1534 1536 1537 1539 1541 1542 1543 1545 1546 1547 1548 1549 1550 1551 1551 1552 1553 1554 1554 1555 1555 1556 1557 1557 1558 1558 1559 1559 1559 1560 1560 1560 1560 1560 1560 1559 1559 1559 1558 1558
1529 1531 1532 1534 1535 1537 1539 1541 1542 1543 1545 1546 1547 1548 1549 1550 1551 1552 1553 1554 1555 1555 1556 1556 1557 1558 1559 1559 1560 1560 1560 1561 1562 1562 1562 1562 1562 1561 1561 1561 1561 1560 1560
1529 1530 1532 1534 1535 1537 1539 1540 1542 1543 1545 1546 1547 1549 1550 1551 1551 1552 1553 1554 1555 1556 1557 1557 1558 1559 1560 1560 1561 1561 1562 1562 1563 1563 1563 1563 1563 1563 1563 1562 1562 1562 1562
1528 1530 1532 1533 1535 1537 1538 1540 1541 1543 1544 1546 1547 1548 1550 1551 1552 1553 1554 1555 1556 1557 1558 1558 1559 1560 1561 1561 1562 1562 1563 1564 1564 1564 1565 1565 1565 1565 1564 1564 1564 1564 1564
1528 1529 1531 1533 1535 1537 1538 1539 1541 1542 1544 1545 1547 1548 1549 1551 1552 1553 1554 1555 1556 1557 1558 1559 1560 1561 1561 1562 1563 1563 1564 1564 1565 1566 1566 1566 1566 1566 1566 1566 1566 1565 1565
1528 1529 1530 1532 1534 1536 1538 1539 1540 1542 1543 1545 1546 1548 1549 1550 1552 1553 1554 1555 1556 1557 1558 1559 1560 1561 1562 1563 1564 1564 1565 1566 1567 1567 1567 1567 1567 1567 1567 1567 1567 1567 1566
1527 1528 1530 1531 1533 1535 1537 1538 1540 1541 1543 1544 1546 1547 1548 1550 1551 1553 1554 1555 1556 1558 1559 1560 1561 1562 1562 1563 1564 1565 1566 1567 1567 1568 1568 1568 1568 1568 1568 1568 1568 1568 1567
1525 1526 1528 1530 1531 1533 1535 1537 1538 1540 1542 1543 1545 1546 1548 1549 1550 1552 1553 1555 1556 1557 1559 1560 1561 1562 1563 1563 1564 1565 1566 1567 1568 1568 1568 1568 1568 1569 1569 1569 1569 1569 1568
1525 1525 1527 1528 1530 1532 1533 1535 1537 1538 1540 1542 1543 1545 1546 1548 1549 1551 1552 1554 1556 1557 1558 1559 1560 1562 1563 1564 1564 1566 1567 1567 1568 1568 1569 1569 1569 1569 1569 1569 1569 1569 1569
1524 1524 1525 1527 1529 1530 1532 1533 1535 1537 1538 1540 1541 1543 1545 1546 1548 1550 1551 1553 1554 1556 1557 1558 1560 1561 1562 1563 1564 1565 1566 1567 1568 1568 1569 1569 1569 1569 1570 1570 1570 1569 1569
1523 1523 1524 1525 1526 1528 1530 1532 1533 1535 1536 1538 1540 1542 1543 1545 1546 1548 1550 1552 1553 1555 1556 1558 1559 1560 1562 1563 1564 1565 1566 1567 1567 1568 1568 1569 1569 1570 1570 1570 1570 1570 1570
1522 1522 1523 1523 1524 1526 1528 1530 1531 1533 1535 1537 1538 1540 1542 1544 1545 1547 1548 1550 1552 1553 1555 1557 1558 1559 1561 1562 1563 1564 1565 1566 1567 1567 1568 1568 1569 1569 1570 1570 1570 1570 1570
1520 1521 1521 1522 1523 1524 1526 1528 1530 1531 1533 1535 1536 1538 1540 1542 1543 1545 1547 1548 1550 1552 1553 1555 1557 1558 1559 1560 1562 1563 1564 1565 1565 1566 1567 1568 1568 1569 1569 1569 1570 1570 1570
1519 1519 1519 1520 1520 1523 1524 1526 1528 1530 1532 1533 1535 1536 1538 1540 1542 1543 1545 1547 1548 1550 1552 1554 1555 1556 1558 1559 1560 1561 1562 1563 1564 1565 1566 1566 1567 1568 1568 1568 1569 1569 1569
1517 1517 1517 1518 1519 1520 1522 1524 1526 1528 1530 1531 1533 1534 1536 1537 1540 1542 1543 1545 1546 1548 1550 1552 1553 1555 1556 1557 1558 1559 1560 1561 1562 1563 1564 1565 1565 1566 1567 1567 1568 1568 1568
1515 1516 1516 1515 1517 1518 1519 1521 1524 1526 1528 1530 1531 1533 1534 1536 1537 1539 1542 1543 1544 1546 1548 1550 1552 1553 1554 1555 1556 1558 1559 1559 1560 1561 1562 1563 1564 1564 1565 1566 1566 1567 1567
1512 1514 1514 1514 1514 1515 1516 1518 1520 1523 1525 1527 1529 1531 1532 1534 1535 1537 1539 1541 1542 1544 1546 1548 1549 1551 1552 1553 1555 1556 1557 1558 1558 1559 1560 1561 1561 1562 1563 1564 1564 1565 1565
1510 1510 1510 1511 1513 1513 1514 1516 1519 1521 1523 1525 1527 1529 1531 1532 1533 1535 1537 1538 1540 1542 1543 1545 1547 1548 1549 1551 1552 1554 1555 1557 1556 1556 1557 1558 1559 1560 1561 1561 1562 1563 1563
1508 1508 1508 1509 1510 1511 1513 1515 1517 1519 1521 1523 1524 1526 1528 1529 1531 1533 1534 1536 1538 1539 1541 1542 1544 1546 1547 1548 1550 1552 1553 1554 1554 1554 1554 1555 1556 1557 1558 1559 1559 1560 1561
1506 1506 1507 1507 1507 1509 1511 1512 1514 1515 1517 1519 1521 1523 1525 1527 1528 1530 1532 1534 1535 1537 1538 1539 1541 1543 1544 1545 1547 1548 1550 1551 1552 1552 1552 1553 1553 1554 1555 1556 1556 1557 1558
1505 1505 1505 1505 1506 1507 1509 1510 1511 1513 1515 1517 1519 1521 1522 1524 1526 1527 1530 1531 1533 1534 1536 1537 1539 1540 1541 1542 1544 1545 1546 1548 1549 1550 1550 1550 1551 1551 1552 1553 1553 1554 1554
1505 1504 1503 1504 1505 1505 1507 1508 1509 1510 1512 1514 1516 1518 1520 1521 1523 1524 1526 1528 1530 1531 1533 1534 1536 1537 1538 1540 1541 1542 1543 1544 1545 1547 1547 1547 1548 1548 1549 1549 1550 1551 1551